Total_Precipitation_Accumulation
2.35 2.43 2.37 2.30 2.28 2.21 2.24 2.45 2.62 2.44 2.21 2.00 1.85 1.81 1.84 1.75 1.83 1.64 1.59 1.46 1.26 1.24 1.29 1.27 1.45 1.79 2.08 2.34 2.56 2.57 2.76 2.94 3.02 3.19 3.27 3.21 3.23 3.14
2.35 2.47 2.51 2.47 2.49 2.43 2.33 2.32 2.31 2.37 2.24 1.98 1.81 1.76 1.93 1.81 1.94 1.63 1.59 1.76 1.50 1.40 1.33 1.19 1.18 1.27 1.41 1.66 1.97 2.13 2.18 2.25 2.31 2.58 2.87 2.96 2.92 2.81
2.14 2.26 2.41 2.47 2.59 2.63 2.65 2.55 2.43 2.39 2.30 2.06 1.87 1.79 2.00 2.02 1.95 1.83 1.65 1.59 1.57 1.56 1.43 1.35 1.26 1.16 1.20 1.30 1.57 1.82 2.04 1.90 1.73 1.83 2.08 2.23 2.49 2.64
2.04 2.01 2.08 2.17 2.29 2.47 2.58 2.55 2.56 2.46 2.38 2.35 2.15 1.92 1.84 1.91 1.98 2.07 1.93 1.68 1.60 1.69 1.62 1.51 1.42 1.30 1.19 1.17 1.28 1.40 1.59 1.68 1.48 1.34 1.43 1.55 1.71 2.00
1.87 1.77 1.75 1.86 1.99 2.14 2.23 2.34 2.49 2.53 2.53 2.48 2.41 2.21 1.95 1.95 2.02 2.08 2.08 2.11 1.81 1.71 1.71 1.66 1.59 1.55 1.43 1.25 1.17 1.19 1.21 1.29 1.32 1.19 1.10 1.20 1.28 1.48
1.58 1.52 1.51 1.54 1.65 1.82 1.95 2.15 2.37 2.50 2.57 2.57 2.52 2.27 2.08 2.03 2.00 2.06 2.17 2.21 2.14 1.86 1.75 1.67 1.74 1.68 1.53 1.40 1.26 1.20 1.21 1.21 1.25 1.27 1.10 1.01 1.05 1.11
1.40 1.24 1.20 1.26 1.31 1.43 1.43 1.70 1.99 2.23 2.35 2.40 2.41 2.25 2.03 1.93 1.79 1.85 2.00 2.18 2.21 2.13 2.01 1.74 1.66 1.59 1.55 1.53 1.43 1.33 1.26 1.31 1.30 1.32 1.32 1.18 1.14 1.10
1.26 1.14 1.07 1.08 1.02 1.03 1.07 1.31 1.64 1.81 1.96 2.14 2.21 2.08 1.90 1.81 1.87 1.87 1.88 1.92 1.94 1.84 1.81 1.81 1.71 1.62 1.56 1.53 1.56 1.52 1.40 1.36 1.43 1.41 1.44 1.41 1.32 1.32
1.20 1.22 1.11 1.02 1.11 0.99 0.96 1.08 1.19 1.32 1.46 1.71 1.91 1.89 1.99 1.89 1.79 1.71 1.72 1.76 1.76 1.79 1.79 1.78 1.66 1.57 1.47 1.45 1.60 1.50 1.48 1.45 1.48 1.54 1.48 1.53 1.50 1.43
1.24 1.33 1.33 1.23 1.20 1.28 1.19 1.19 1.16 1.12 1.23 1.12 1.28 1.66 1.83 1.91 1.86 1.87 1.97 1.89 1.72 1.71 1.72 1.73 1.62 1.50 1.37 1.29 1.40 1.31 1.24 1.25 1.35 1.54 1.65 1.66 1.72 1.67
1.15 1.28 1.33 1.24 1.35 1.47 1.51 1.52 1.44 1.26 1.41 1.43 1.29 1.38 1.56 1.64 1.75 1.81 1.85 1.78 1.70 1.59 1.45 1.42 1.35 1.37 1.42 1.33 1.29 1.34 1.25 1.20 1.17 1.21 1.33 1.42 1.56 1.73
1.18 1.21 1.40 1.31 1.31 1.30 1.35 1.46 1.43 1.26 1.13 1.15 1.12 1.00 0.93 1.06 1.30 1.41 1.68 1.81 1.76 1.64 1.42 1.36 1.37 1.36 1.38 1.28 1.17 1.21 1.21 1.29 1.27 1.21 1.23 1.32 1.43 1.50
1.25 1.27 1.25 1.38 1.24 1.20 1.18 1.15 1.26 1.28 1.26 1.30 1.33 1.19 1.06 1.00 1.04 1.11 1.33 1.58 1.73 1.62 1.44 1.34 1.37 1.38 1.30 1.15 1.08 1.09 1.10 1.09 1.14 1.21 1.27 1.38 1.46 1.42
1.08 1.08 1.06 1.20 1.06 1.00 0.94 0.98 1.11 1.18 1.24 1.37 1.36 1.28 1.22 1.14 1.11 1.14 1.21 1.32 1.41 1.48 1.50 1.47 1.44 1.40 1.35 1.18 1.09 1.06 1.05 1.03 1.00 1.05 1.10 1.36 1.53 1.60
0.81 0.94 0.98 0.99 0.93 0.85 0.91 0.96 0.99 1.02 1.13 1.22 1.22 1.15 1.15 1.21 1.22 1.21 1.23 1.27 1.24 1.17 1.17 1.25 1.38 1.43 1.43 1.31 1.13 1.08 1.08 1.03 0.96 0.97 1.04 1.11 1.19 1.37
0.73 0.81 0.85 0.84 0.84 0.84 0.88 0.93 0.96 1.00 1.07 1.10 1.09 1.10 1.11 1.18 1.26 1.24 1.25 1.31 1.35 1.25 1.16 1.19 1.30 1.45 1.45 1.33 1.26 1.17 1.13 1.09 1.01 0.99 0.99 1.06 1.15 1.25
0.83 0.78 0.76 0.77 0.79 0.85 0.88 0.89 0.94 1.00 1.00 0.97 1.02 1.05 1.05 1.10 1.14 1.14 1.19 1.24 1.25 1.16 1.12 1.18 1.26 1.36 1.40 1.41 1.43 1.30 1.26 1.26 1.22 1.18 1.14 1.11 1.10 1.17
0.85 0.90 0.92 0.97 1.01 1.01 0.98 0.89 0.86 0.89 0.96 1.02 1.05 1.07 1.08 1.05 1.08 1.11 1.14 1.23 1.24 1.12 1.02 1.06 1.20 1.34 1.35 1.23 1.15 1.14 1.17 1.19 1.26 1.33 1.29 1.22 1.14 1.15
0.82 0.97 0.99 0.97 0.93 0.93 0.90 0.85 0.78 0.76 0.80 0.92 1.04 1.14 1.15 1.13 1.16 1.20 1.20 1.16 1.14 1.13 1.05 1.01 1.09 1.27 1.33 1.11 0.94 0.92 0.97 1.02 1.13 1.22 1.24 1.17 1.09 1.13
0.79 0.88 0.89 0.88 0.82 0.77 0.73 0.69 0.70 0.70 0.71 0.76 0.80 0.90 1.06 1.16 1.24 1.27 1.31 1.35 1.33 1.28 1.21 1.10 1.04 1.10 1.22 1.19 1.02 0.85 0.86 0.95 1.08 1.12 1.14 1.16 1.13 1.19
0.70 0.71 0.68 0.67 0.67 0.66 0.65 0.67 0.72 0.72 0.72 0.74 0.73 0.76 0.87 1.02 1.19 1.29 1.35 1.44 1.42 1.38 1.35 1.23 1.18 1.31 1.25 1.29 1.23 0.95 0.82 0.92 1.03 1.06 1.09 1.20 1.20 1.14
0.64 0.65 0.67 0.66 0.63 0.62 0.64 0.67 0.75 0.78 0.75 0.76 0.81 0.85 0.92 0.99 1.04 1.13 1.29 1.35 1.28 1.24 1.24 1.24 1.28 1.34 1.34 1.41 1.32 1.10 0.98 0.94 1.00 1.10 1.13 1.18 1.20 1.19
0.62 0.64 0.66 0.65 0.64 0.68 0.69 0.70 0.74 0.78 0.79 0.79 0.82 0.89 0.96 1.04 1.09 1.10 1.13 1.18 1.23 1.27 1.28 1.27 1.27 1.30 1.34 1.38 1.45 1.39 1.25 1.14 1.10 1.11 1.09 1.21 1.18 1.06